Bucharest, Romania

1:35 AM EET on February 26, 2017 (GMT +0200)
Bucharest

Weather History for 15420 - April, 2010

Change the Weather History Date:

Monday, April 5, 2010

  Actual Average Record
Temperature  
Mean Temperature 54 °F -  
Max Temperature 63 °F 66 °F - ()
Min Temperature 44 °F 44 °F - ()
Degree Days  
Heating Degree Days 12    
Growing Degree Days 4 (Base 50)    
Moisture  
Dew Point 42 °F    
Average Humidity 66    
Maximum Humidity 100    
Minimum Humidity 26    
Precipitation  
Precipitation 0.01 in 0.07 in - ()
Sea Level Pressure  
Sea Level Pressure 30.11 in    
Wind  
Wind Speed 6 mph ()    
Max Wind Speed 12 mph    
Max Gust Speed -    
Visibility 6.0 miles    
Events Rain    
T = Trace of Precipitation, MM = Missing Value Source: Averaged Metar Reports

Daily Weather History Graph

Daily Weather History Graph

Search for Another Location

Airport or City:

Trip Planner

Search our weather history database for the weather conditions in past years. The results will help you decide how hot, cold, wet, or windy it might be!

Date:

Astronomy

Apr. 05, 2010 Rise Set
Actual Time 6:49 AM EEST 7:47 PM EEST
Civil Twilight 6:20 AM EEST 8:17 PM EEST
Nautical Twilight 5:45 AM EEST 8:52 PM EEST
Astronomical Twilight 5:08 AM EEST 9:29 PM EEST
Moon 2:07 AM EEST (4/5) 10:48 AM EEST (4/5)
Length of Visible Light 13h 56m
Length of Day
12h 57m
Waning Gibbous, 60% of the Moon is Illuminated
Apr 5
Waning Gibbous
Apr 6
Last Quarter
Apr 14
New
Apr 21
First Quarter
Apr 28
Full

Hourly Weather History & Observations

Time (EEST) Temp. Windchill Dew Point Humidity Pressure Visibility Wind Dir Wind Speed Gust Speed Precip Events Conditions
12:00 AM 53 °F - 36 °F 41% 30.22 in 6 mi East 4.5 mph - -   Clear
12:00 AM 50.0 °F - 44.6 °F 82% 30.18 in - East 5.8 mph - N/A   Clear
12:30 AM 50.0 °F - 44.6 °F 82% 30.18 in - East 4.6 mph - N/A   Clear
1:00 AM 51 °F - 36 °F 46% 30.21 in 6 mi East 4.5 mph - -   Clear
1:00 AM 50.0 °F - 44.6 °F 82% 30.18 in - East 5.8 mph - N/A   Clear
1:30 AM 48.2 °F - 44.6 °F 87% 30.18 in - East 5.8 mph - N/A   Clear
2:00 AM 48 °F - 37 °F 56% 30.21 in 6 mi ENE 2.2 mph - -  
2:00 AM 48.2 °F - 44.6 °F 87% 30.18 in - East 4.6 mph - N/A   Clear
2:30 AM 48.2 °F - 44.6 °F 87% 30.18 in - ENE 4.6 mph - N/A   Clear
3:00 AM 47 °F - 39 °F 66% 30.20 in 6 mi NE 2.2 mph - -  
4:00 AM 46 °F - 39 °F 69% 30.20 in 6 mi NNE 4.5 mph - -  
4:00 AM 46.4 °F 44.3 °F 42.8 °F 87% 30.18 in - ENE 4.6 mph - N/A   Clear
4:30 AM 46.4 °F 43.5 °F 42.8 °F 87% 30.15 in - East 5.8 mph - N/A   Clear
5:00 AM 45 °F - 38 °F 70% 30.21 in 6 mi NE 4.5 mph - -  
5:00 AM 46.4 °F 43.5 °F 42.8 °F 87% 30.15 in - ENE 5.8 mph - N/A   Clear
5:30 AM 44.6 °F 42.2 °F 41.0 °F 87% 30.15 in - East 4.6 mph - N/A   Clear
6:00 AM 44 °F - 36 °F 66% 30.20 in 6 mi NE 4.5 mph - -  
6:00 AM 44.6 °F 42.2 °F 41.0 °F 87% 30.15 in - East 4.6 mph - N/A   Clear
6:30 AM 44.6 °F 42.2 °F 42.8 °F 93% 30.15 in - East 4.6 mph - N/A   Clear
7:00 AM 44 °F - 37 °F 69% 30.19 in 6 mi ENE 4.5 mph - -   Clear
7:30 AM 44.6 °F 42.2 °F 42.8 °F 93% 30.12 in - East 4.6 mph - N/A   Clear
8:00 AM 44 °F - 37 °F 68% 30.18 in 6 mi ENE 4.5 mph - -   Overcast
8:00 AM 46.4 °F 43.5 °F 42.8 °F 87% 30.12 in - East 5.8 mph - N/A   Clear
8:30 AM 46.4 °F 43.5 °F 42.8 °F 87% 30.15 in - East 5.8 mph - N/A   Clear
9:00 AM 46 °F - 38 °F 66% 30.18 in 6 mi ENE 4.5 mph - -   Overcast
9:00 AM 48.2 °F - 42.8 °F 82% 30.15 in - East 5.8 mph - N/A   Clear
9:30 AM 50.0 °F - 44.6 °F 82% 30.15 in - ENE 6.9 mph - N/A   Clear
10:00 AM 50 °F - 40 °F 58% 30.18 in 6 mi NE 4.5 mph - -   Scattered Clouds
10:00 AM 51.8 °F - 44.6 °F 76% 30.12 in - East 8.1 mph - N/A   Clear
10:30 AM 53.6 °F - 44.6 °F 72% 30.12 in - East 9.2 mph - N/A   Clear
11:00 AM 54 °F - 39 °F 45% 30.17 in 6 mi NE 6.7 mph - -   Clear
11:00 AM 55.4 °F - 44.6 °F 67% 30.12 in - East 10.4 mph - N/A   Clear
11:30 AM 55.4 °F - 44.6 °F 67% 30.12 in - East 11.5 mph - N/A   Clear
12:00 PM 55 °F - 38 °F 42% 30.16 in 6 mi ENE 6.7 mph - -   Overcast
12:00 PM 57.2 °F - 46.4 °F 67% 30.12 in - East 11.5 mph - N/A   Clear
12:30 PM 57.2 °F - 44.6 °F 63% 30.09 in - ESE 11.5 mph - N/A   Clear
1:00 PM 57 °F - 37 °F 36% 30.14 in 6 mi East 8.9 mph - -   Overcast
1:00 PM 59.0 °F - 44.6 °F 59% 30.09 in - ESE 11.5 mph - N/A   Clear
1:30 PM 62.6 °F - 42.8 °F 48% 30.06 in - ESE 11.5 mph - N/A   Clear
2:00 PM 63 °F - 37 °F 27% 30.10 in 6 mi East 8.9 mph - -   Overcast
2:00 PM 62.6 °F - 41.0 °F 45% 30.06 in - SE 9.2 mph - N/A   Clear
2:30 PM 62.6 °F - 42.8 °F 48% 30.06 in - SE 10.4 mph - N/A   Clear
3:00 PM 62 °F - 36 °F 26% 30.09 in 6 mi East 8.9 mph - -   Overcast
3:00 PM 62.6 °F - 41.0 °F 45% 30.06 in - SE 9.2 mph - N/A   Clear
3:30 PM 60.8 °F - 42.8 °F 52% 30.06 in - ESE 6.9 mph - N/A   Clear
4:00 PM 60 °F - 36 °F 29% 30.10 in 6 mi East 4.5 mph - -   Overcast
4:00 PM 60.8 °F - 44.6 °F 55% 30.06 in - East 5.8 mph - N/A   Clear
4:30 PM 60.8 °F - 42.8 °F 52% 30.06 in 6.2 mi ENE 4.6 mph - N/A Rain Light Rain
5:00 PM 60 °F - 36 °F 30% 30.09 in 6 mi North 4.5 mph - -   Overcast
5:00 PM 59.0 °F - 48.2 °F 67% 30.06 in 6.2 mi NNE 6.9 mph - N/A Rain Light Rain
5:30 PM 57.2 °F - 46.4 °F 67% 30.04 in 6.2 mi ENE 6.9 mph - N/A Rain Light Rain Showers
6:00 PM 56 °F - 43 °F 51% 30.07 in 6 mi NNE 4.5 mph - - Rain Light Rain Showers
6:00 PM 59.0 °F - 44.6 °F 59% 30.04 in 6.2 mi ENE 6.9 mph - N/A   Partly Cloudy
6:30 PM 57.2 °F - 46.4 °F 67% 30.01 in - ENE 9.2 mph - N/A   Clear
7:00 PM 56 °F - 42 °F 49% 30.05 in 6 mi NE 6.7 mph - -   Overcast
7:00 PM 57.2 °F - 46.4 °F 67% 30.01 in 6.2 mi ENE 10.4 mph - N/A Rain Light Rain
7:30 PM 57.2 °F - 44.6 °F 63% 30.01 in - ENE 9.2 mph - N/A   Clear
8:00 PM 55 °F - 40 °F 47% 30.04 in 6 mi NE 6.7 mph - -   Overcast
8:00 PM 55.4 °F - 44.6 °F 67% 30.01 in 6.2 mi ENE 9.2 mph - N/A   Scattered Clouds
8:30 PM 55.4 °F - 44.6 °F 67% 30.01 in - ENE 11.5 mph - N/A   Clear
9:00 PM 54 °F - 40 °F 47% 30.04 in 6 mi NE 6.7 mph - -   Partly Cloudy
9:00 PM 53.6 °F - 46.4 °F 77% 30.01 in 6.2 mi ENE 6.9 mph - N/A Rain Light Rain
9:30 PM 53.6 °F - 48.2 °F 82% 30.01 in - East 9.2 mph - N/A   Clear
10:00 PM 53 °F - 42 °F 57% 30.04 in 6 mi ENE 6.7 mph - -   Scattered Clouds
10:00 PM 53.6 °F - 48.2 °F 82% 30.01 in - East 6.9 mph - N/A   Clear
10:30 PM 51.8 °F - 48.2 °F 88% 30.01 in - East 6.9 mph - N/A   Clear
11:00 PM 51 °F - 43 °F 67% 30.05 in 6 mi ENE 6.7 mph - -   Overcast
11:00 PM 51.8 °F - 48.2 °F 88% 30.01 in - ENE 8.1 mph - N/A   Clear
11:30 PM 50.0 °F - 50.0 °F 100% 29.98 in - ENE 8.1 mph - N/A   Clear